[[{"header":{"parameterUnit":"m.s-1","parameterCategory":2,"la1":30.2991,"la2":30.254,"lo1":-89.0895,"lo2":-89.0444,"dy":0.0017,"dx":0.0017,"nx":28,"ny":28,"refTime":"2025-07-07T09:00:00:Z","depth":"0","parameterNumber":2,"parameterNumberName":"U-component_of_CURRENTS"},"data":[0,0,0,0,0,0,0,0,0,0,0,0,0,0,0,0,0,0,0,0,0,0,0,0,0,0,0,0,0,0,0,0,0,0,0,0,0,0,0,0,0,0,0,0,0,0,0,0,0,0,0,0,0,0,0,0,0,0,0.2192,0.2193,0,0.2295,0.2296,0.2297,0.2301,0.23,0.2299,0.2298,0.2338,0.234,0.2342,0,0,0,0,0,0,0,0,0,0,0,0,0,0.2015,0.2018,0.2191,0.2193,0.2194,0.2294,0.2296,0.2297,0.2302,0.23,0.2299,0.2297,0.2337,0.234,0.2342,0,0,0,0,0,0,0,0,0,0,0,0,0,0.2103,0.2019,0.2191,0.2208,0.221,0.2294,0.2296,0.2298,0.2302,0.23,0.2298,0.2296,0.2336,0.2339,0.2343,0.2401,0,0,0.2353,0.2354,0,0,0,0,0,0,0,0,0.2098,0.2109,0.2204,0.2207,0.221,0.2283,0.2248,0.2329,0.2302,0.2268,0.2298,0.2295,0.2315,0.232,0.2345,0.2403,0.2405,0.2353,0.2355,0.2357,0.2358,0,0,0,0,0,0,0,0.2091,0.2105,0.2233,0.2206,0.2209,0.2216,0.2226,0.2264,0.23,0.2271,0.2271,0.2282,0.2315,0.2342,0.2346,0.2406,0.2353,0.2356,0.2358,0.236,0.2504,0.2506,0,0,0,0,0,0,0.208,0.21,0.2229,0.2236,0.2147,0.222,0.2232,0.2262,0.2301,0.2305,0.2284,0.2282,0.2337,0.2342,0.2347,0.2411,0.2357,0.236,0.2362,0.2502,0.2504,0.2506,0,0,0,0,0,0,0.2076,0.2091,0.2225,0.2168,0.2185,0.2225,0.2259,0.2265,0.2292,0.2311,0.2314,0.2304,0.2336,0.2342,0.2404,0.2412,0.2361,0.2364,0.25,0.2503,0.2505,0.2544,0,0,0,0,0,0,0.2071,0.209,0.2113,0.2168,0.2188,0.2275,0.2261,0.2268,0.2301,0.23,0.233,0.2332,0.2335,0.2399,0.2408,0.2416,0.2367,0.2498,0.2501,0.2504,0.2541,0.2548,0.2554,0,0,0,0,0,0.2065,0.2096,0.2114,0.2129,0.2217,0.2276,0.2288,0.2309,0.2304,0.2325,0.2359,0.2331,0.2425,0.2405,0.2414,0.2423,0.2496,0.25,0.2504,0.2538,0.2547,0.2554,0,0,0,0,0,0,0.202,0.2102,0.2121,0.2174,0.2223,0.2276,0.2296,0.2318,0.2365,0.236,0.2375,0.2382,0.2438,0.2436,0.2414,0.2476,0.2448,0.2454,0.247,0.2479,0.2485,0.249,0.237,0,0,0,0,0,0.2027,0.2073,0.2144,0.2181,0.2208,0.2258,0.2285,0.2305,0.235,0.2368,0.2396,0.2424,0.2466,0.2475,0.2514,0.2557,0.2592,0.2563,0.257,0.2576,0.2587,0.2668,0.2684,0.252,0.252,0.252,0,0,0.2014,0.2066,0.209,0.2175,0.2211,0.2258,0.2269,0.2313,0.2347,0.2366,0.2423,0.2462,0.2489,0.2541,0.2561,0.2534,0.2644,0.2581,0.2585,0.2593,0.2674,0.269,0.2704,0.2522,0.2522,0.2522,0,0,0.2015,0.2064,0.2109,0.2153,0.222,0.2257,0.2272,0.2342,0.2367,0.2436,0.246,0.2517,0.2566,0.2598,0.2615,0.2686,0.2691,0.268,0.2702,0.2781,0.2796,0.2808,0.2887,0.2906,0.2666,0.2666,0.2666,0,0.2,0.2069,0.2125,0.2175,0.2206,0.2256,0.2298,0.2341,0.2421,0.245,0.2449,0.2566,0.2593,0.2662,0.2689,0.2699,0.2748,0.2665,0.279,0.2804,0.2816,0.2893,0.2914,0.2668,0.2668,0.2667,0.2667,0,0.2042,0.209,0.2113,0.2196,0.2237,0.2278,0.2342,0.2386,0.242,0.2465,0.255,0.2615,0.2672,0.2692,0.2716,0.2811,0.2821,0.2803,0.2767,0.2835,0.2912,0.2933,0.2671,0.2671,0.267,0.2669,0,0,0.2032,0.2128,0.2134,0.2162,0.2251,0.2282,0.2342,0.2416,0.2453,0.2526,0.2591,0.268,0.2713,0.274,0.2778,0.2854,0.2997,0.2869,0.2872,0.2943,0.3188,0.3187,0.321,0.3004,0.3008,0.301,0.321,0,0.2052,0.2126,0.2175,0.2225,0.2269,0.2319,0.2366,0.2428,0.2491,0.2569,0.2637,0.2719,0.2726,0.2773,0.2849,0.2982,0.3054,0.2946,0.3115,0.312,0.3108,0.3234,0.3192,0.3366,0.3231,0.3235,0.3237,0,0.2091,0.2133,0.2191,0.2241,0.2262,0.2292,0.2366,0.2418,0.2526,0.2577,0.266,0.273,0.287,0.2859,0.3083,0.3018,0.3104,0.319,0.3198,0.3199,0.3159,0.3275,0.341,0.3297,0.327,0.3267,0.3265,0,0.207,0.2138,0.2177,0.2199,0.2274,0.2291,0.2324,0.2416,0.2486,0.2597,0.2685,0.2802,0.293,0.3036,0.3219,0.3164,0.3478,0.3405,0.3476,0.3476,0.3474,0.3468,0.3514,0.3546,0.3546,0.3545,0.3545,0,0.2097,0.2127,0.2159,0.2182,0.2219,0.2258,0.2319,0.2374,0.2488,0.2607,0.2688,0.2839,0.2994,0.3187,0.327,0.3476,0.3512,0.3525,0.3544,0.3487,0.348,0.3404,0.3308,0.3553,0.3551,0.355,0.3549,0,0.2124,0.2141,0.2186,0.2219,0.2224,0.2253,0.2331,0.2411,0.2487,0.2659,0.2713,0.2939,0.3191,0.3339,0.3579,0.3588,0.365,0.3784,0.3712,0.3718,0.3607,0.3515,0.3474,0.3369,0.3873,0.3874,0.3875,0,0.2173,0.2194,0.2207,0.2253,0.228,0.2313,0.2378,0.242,0.2527,0.2742,0.2866,0.3131,0.3335,0.3667,0.3767,0.391,0.3758,0.3915,0.3777,0.3638,0.355,0.3361,0.326,0.3802,0.3803,0.3803,0.3803,0,0.2288,0.2271,0.2312,0.2366,0.2419,0.2457,0.2532,0.2588,0.269,0.2822,0.3048,0.3203,0.353,0.3689,0.3874,0.3946,0.3716,0.3924,0.3814,0.354,0.3308,0.3203,0.3624,0.3807,0.3807,0.3806,0.3806,0.3806,0.2398,0.2436,0.2472,0.2515,0.2567,0.2604,0.2613,0.2712,0.2814,0.2967,0.3139,0.3328,0.3557,0.3816,0.3865,0.3869,0.3749,0.3771,0.369,0.3527,0.3353,0.378,0.3947,0.3947,0.3948,0.3948,0.3948,0,0.2546,0.2569,0.2637,0.2656,0.2691,0.2683,0.274,0.2734,0.2811,0.2997,0.3132,0.3359,0.3531,0.3671,0.3744,0.3636,0.3475,0.3552,0.3276,0.32,0.3652,0.3574,0.3627,0.3627,0.3627,0.3627,0.3627,0.3627,0.265,0.272,0.2701,0.2749,0.2756,0.2741,0.2735,0.2735,0.2809,0.2906,0.3008,0.3133,0.334,0.3521,0.3474,0.3412,0.3109,0.304,0.2929,0.3251,0.3263,0.3275,0.3182,0.3151,0.315,0.2415,0.2409,0.2405]},{"header":{"parameterUnit":"m.s-1","parameterCategory":2,"la1":30.2991,"la2":30.254,"lo1":-89.0895,"lo2":-89.0444,"dy":0.0017,"dx":0.0017,"nx":28,"ny":28,"refTime":"2025-07-07T09:00:00:Z","depth":"0","parameterNumber":3,"parameterNumberName":"V-component_of_CURRENTS"},"data":[0,0,0,0,0,0,0,0,0,0,0,0,0,0,0,0,0,0,0,0,0,0,0,0,0,0,0,0,0,0,0,0,0,0,0,0,0,0,0,0,0,0,0,0,0,0,0,0,0,0,0,0,0,0,0,0,0,0,-0.0052,-0.0052,0,-0.0065,-0.0065,-0.0065,-0.0079,-0.0079,-0.0079,-0.008,-0.0079,-0.0079,-0.0078,0,0,0,0,0,0,0,0,0,0,0,0,0,-0.0035,-0.0035,-0.0052,-0.0052,-0.0052,-0.0065,-0.0065,-0.0065,-0.0079,-0.0079,-0.0079,-0.008,-0.0079,-0.0079,-0.0078,0,0,0,0,0,0,0,0,0,0,0,0,0,-0.0043,-0.0035,-0.0052,-0.0062,-0.0063,-0.0065,-0.0065,-0.0065,-0.0078,-0.0079,-0.0079,-0.008,-0.0079,-0.0079,-0.0078,-0.0066,0,0,-0.0077,-0.0077,0,0,0,0,0,0,0,0,-0.0043,-0.0044,-0.006,-0.0061,-0.0062,-0.0072,-0.0059,-0.0065,-0.0078,-0.0071,-0.008,-0.008,-0.0076,-0.0076,-0.0075,-0.0066,-0.0066,-0.0077,-0.0077,-0.0076,-0.0076,0,0,0,0,0,0,0,-0.0042,-0.0043,-0.0055,-0.006,-0.0062,-0.0065,-0.0066,-0.006,-0.0069,-0.0072,-0.0073,-0.0077,-0.0076,-0.0076,-0.0075,-0.0066,-0.0077,-0.0076,-0.0076,-0.0076,-0.0056,-0.0056,0,0,0,0,0,0,-0.0043,-0.0043,-0.0055,-0.0056,-0.0055,-0.0065,-0.0066,-0.0067,-0.007,-0.0071,-0.0076,-0.0077,-0.0076,-0.0076,-0.0075,-0.0039,-0.0076,-0.0076,-0.0076,-0.0056,-0.0056,-0.0056,0,0,0,0,0,0,-0.0043,-0.0044,-0.0054,-0.0051,-0.0053,-0.0065,-0.0065,-0.0067,-0.0071,-0.0074,-0.0074,-0.0079,-0.0077,-0.0076,-0.0066,-0.004,-0.0076,-0.0075,-0.0057,-0.0056,-0.0056,0.0021,0,0,0,0,0,0,-0.0042,-0.0044,-0.0041,-0.0051,-0.0053,-0.0041,-0.0065,-0.0067,-0.0073,-0.0074,-0.0076,-0.0076,-0.0077,-0.0067,-0.0066,-0.004,-0.0075,-0.0057,-0.0056,-0.0056,0.0018,0.0024,0.0028,0,0,0,0,0,-0.0041,-0.003,-0.004,-0.0042,-0.005,-0.004,-0.004,-0.005,-0.0072,-0.0059,-0.0069,-0.0076,-0.0064,-0.0066,-0.0065,-0.0038,-0.0057,-0.0057,-0.0056,0.0015,0.0022,0.0028,0,0,0,0,0,0,-0.0023,-0.0031,-0.0042,-0.0035,-0.0034,-0.0043,-0.0035,-0.0051,-0.005,-0.0056,-0.0067,-0.0067,-0.005,-0.0061,-0.0064,-0.0035,-0.0064,-0.0063,-0.001,-0.0003,0.0002,0.0041,-0.0074,0,0,0,0,0,-0.0018,-0.0013,-0.002,-0.0015,-0.0013,-0.0028,-0.0028,-0.0035,-0.0039,-0.004,-0.0043,-0.005,-0.0046,-0.0039,-0.0039,-0.0017,-0.0014,-0.0005,0.0001,0.0006,0.0036,0.0074,0.0087,-0.0054,-0.0054,-0.0054,0,0,-0.0013,-0.0016,-0.0015,-0.0011,-0.0014,0.0005,-0.0028,-0.0022,-0.0005,-0.0039,-0.0016,-0.0031,-0.004,-0.0015,-0.0009,-0.0019,0.0038,0.0006,0.0011,0.0039,0.0076,0.009,0.0103,-0.0054,-0.0054,-0.0054,0,0,0.0014,0.0001,0.0022,0.0028,0.0029,0.0026,0.0027,0.0022,0.0024,0.004,0.0017,0.0027,0.0025,0.0039,0.004,0.0075,0.0062,0.0056,0.0127,0.0163,0.0176,0.0188,0.018,0.019,0.0065,0.0065,0.0065,0,0.0024,0.0041,0.0031,0.0056,0.0059,0.0037,0.0061,0.007,0.0069,0.0087,0.0058,0.0079,0.0062,0.0111,0.0116,0.0094,0.0093,0.0107,0.0175,0.0186,0.0197,0.0186,0.0197,0.0068,0.0068,0.0068,0.0067,0,0.0073,0.0082,0.0095,0.0117,0.0127,0.014,0.0146,0.0162,0.015,0.0164,0.0201,0.0185,0.0205,0.019,0.0164,0.0228,0.0193,0.0176,0.0168,0.0217,0.02,0.021,0.0074,0.0073,0.0071,0.007,0,0,0.0105,0.0125,0.0128,0.0141,0.0153,0.0168,0.0205,0.0242,0.0294,0.0288,0.0356,0.0344,0.034,0.0341,0.0311,0.0338,0.0386,0.0292,0.0292,0.0301,0.0439,0.0383,0.0387,0.0384,0.0387,0.0389,0.0387,0,0.0145,0.0189,0.0191,0.0232,0.0251,0.0248,0.0295,0.0329,0.0362,0.0432,0.0427,0.048,0.0397,0.0419,0.043,0.042,0.0421,0.0387,0.0376,0.0376,0.0336,0.0401,0.0382,0.0377,0.0396,0.0398,0.0399,0,0.0195,0.0214,0.0254,0.0287,0.0299,0.0326,0.0399,0.0442,0.0533,0.0567,0.0617,0.0627,0.0671,0.059,0.0598,0.0581,0.0512,0.0483,0.0482,0.0422,0.0341,0.0336,0.0394,0.0176,0.0414,0.0412,0.0411,0,0.0219,0.0257,0.0283,0.0292,0.0337,0.0362,0.0395,0.0483,0.0577,0.067,0.0771,0.0786,0.0857,0.0781,0.071,0.0664,0.0716,0.0641,0.0515,0.0508,0.0489,0.0476,0.0358,0.0633,0.0633,0.0633,0.0633,0,0.0256,0.0286,0.0295,0.0312,0.0385,0.0391,0.0507,0.0556,0.0693,0.0864,0.0848,0.1008,0.092,0.0939,0.0791,0.0707,0.0775,0.0555,0.0526,0.0506,0.0496,0.0301,0.0194,0.0633,0.0633,0.0633,0.0633,0,0.0308,0.0297,0.0348,0.0381,0.0398,0.0458,0.0593,0.0717,0.0807,0.1039,0.1089,0.1224,0.126,0.1127,0.1052,0.086,0.0629,0.0673,0.0633,0.0599,0.0241,0.0141,0.0059,-0.0019,0.0532,0.0531,0.053,0,0.0359,0.0373,0.0412,0.0474,0.0498,0.0584,0.0685,0.077,0.0936,0.1201,0.1353,0.1459,0.1587,0.1425,0.1118,0.0843,0.0652,0.0598,0.0497,0.0245,0.0113,0.0056,-0.0008,0.0482,0.0481,0.048,0.0479,0,0.048,0.0472,0.0524,0.0623,0.0711,0.083,0.0974,0.111,0.1276,0.1473,0.1766,0.1879,0.1753,0.1533,0.1131,0.0911,0.0451,0.0566,0.0346,0.011,0.0008,-0.0089,0.0418,0.047,0.0471,0.0472,0.0472,0.0473,0.0611,0.0667,0.0721,0.0815,0.0931,0.1094,0.1208,0.1398,0.1644,0.1948,0.2049,0.2229,0.1831,0.1321,0.1016,0.0365,0.0398,0.0128,0.0038,0.0012,-0.0091,0.0372,0.0364,0.0364,0.0364,0.0365,0.0365,0,0.0777,0.0819,0.0926,0.1041,0.1189,0.1202,0.1435,0.1568,0.1846,0.2114,0.2332,0.2216,0.1724,0.1185,0.0327,-0.0107,-0.0235,-0.0344,-0.0437,-0.0469,-0.0024,-0.0059,-0.0206,-0.0206,-0.0206,-0.0205,-0.0205,-0.0205,0.0887,0.0991,0.1001,0.1237,0.1335,0.1526,0.1647,0.1846,0.2044,0.2317,0.2409,0.2458,0.1951,0.055,-0.0394,-0.0585,-0.0859,-0.0919,-0.1038,-0.0781,-0.0745,-0.071,-0.077,-0.1064,-0.1065,-0.1437,-0.1441,-0.1444]}],[{"header":{"parameterUnit":"m.s-1","parameterCategory":2,"la1":30.2991,"la2":30.254,"lo1":-89.0895,"lo2":-89.0444,"dy":0.0017,"dx":0.0017,"nx":28,"ny":28,"refTime":"2025-07-07T09:00:00:Z","depth":"2","parameterNumber":2,"parameterNumberName":"U-component_of_CURRENTS"},"data":[0,0,0,0,0,0,0,0,0,0,0,0,0,0,0,0,0,0,0,0,0,0,0,0,0,0,0,0,0,0,0,0,0,0,0,0,0,0,0,0,0,0,0,0,0,0,0,0,0,0,0,0,0,0,0,0,0,0,0.1017,0.1018,0,0.1058,0.1058,0.1059,0.1203,0.1206,0.1209,0.1212,0.1238,0.1236,0.1234,0,0,0,0,0,0,0,0,0,0,0,0,0,0.1067,0.1066,0.1017,0.1018,0.1018,0.1058,0.1058,0.1059,0.1202,0.1206,0.121,0.1213,0.1239,0.1237,0.1234,0,0,0,0,0,0,0,0,0,0,0,0,0,0.1072,0.1065,0.1017,0.1093,0.11,0.1057,0.1058,0.1059,0.1202,0.1206,0.1211,0.1215,0.124,0.1237,0.1234,0.1121,0,0,0.1224,0.1222,0,0,0,0,0,0,0,0,0.1072,0.107,0.1081,0.1088,0.1095,0.1128,0.1086,0.1078,0.12,0.1165,0.1212,0.1217,0.1195,0.1196,0.1196,0.1122,0.1123,0.1223,0.1221,0.122,0.1219,0,0,0,0,0,0,0,0.1071,0.107,0.1035,0.1081,0.109,0.1126,0.1132,0.1085,0.1155,0.1168,0.1178,0.1178,0.12,0.1199,0.1198,0.1124,0.1223,0.122,0.1218,0.1217,0.1392,0.1398,0,0,0,0,0,0,0.1056,0.1068,0.1034,0.1036,0.1093,0.1121,0.1128,0.1115,0.1156,0.1166,0.1174,0.1185,0.1203,0.1202,0.1199,0.1363,0.122,0.1217,0.1215,0.1386,0.1394,0.1401,0,0,0,0,0,0,0.1057,0.1052,0.1032,0.1053,0.1053,0.1115,0.1099,0.1113,0.1152,0.116,0.1172,0.1205,0.1206,0.1204,0.1258,0.1354,0.1215,0.1212,0.1378,0.1388,0.1397,0.1499,0,0,0,0,0,0,0.1058,0.1052,0.1032,0.1051,0.1051,0.1057,0.1095,0.111,0.1142,0.1157,0.1188,0.1194,0.121,0.1263,0.1254,0.1347,0.121,0.1369,0.1382,0.1394,0.1488,0.1512,0.1532,0,0,0,0,0,0.1059,0.105,0.103,0.1026,0.1023,0.1058,0.1063,0.1123,0.1139,0.1171,0.1226,0.1195,0.134,0.1262,0.1251,0.1346,0.1363,0.1379,0.1393,0.1478,0.1507,0.1532,0,0,0,0,0,0,0.11,0.1062,0.1044,0.103,0.1051,0.1083,0.1118,0.1121,0.1178,0.121,0.1214,0.1225,0.1323,0.1319,0.1235,0.1453,0.137,0.1383,0.1439,0.1465,0.1487,0.1448,0.1207,0,0,0,0,0,0.1076,0.1056,0.1039,0.1044,0.1049,0.1068,0.1083,0.1119,0.1166,0.1198,0.122,0.1287,0.1363,0.1401,0.1443,0.1498,0.1481,0.1584,0.1606,0.1624,0.1598,0.1673,0.1696,0.145,0.1449,0.1449,0,0,0.1105,0.1077,0.1072,0.1048,0.1074,0.1115,0.1096,0.1147,0.1204,0.1181,0.1282,0.1326,0.1393,0.1513,0.1561,0.1526,0.1698,0.1643,0.1657,0.162,0.1691,0.1713,0.1733,0.146,0.1458,0.1456,0,0,0.1172,0.112,0.1129,0.1143,0.1159,0.1167,0.118,0.1212,0.1258,0.1325,0.1374,0.1467,0.1544,0.1634,0.1687,0.1839,0.1798,0.1899,0.1975,0.2051,0.2069,0.2084,0.2114,0.2131,0.1926,0.1926,0.1926,0,0.1202,0.1188,0.1151,0.1183,0.1199,0.1197,0.1239,0.1285,0.1342,0.1376,0.1397,0.1574,0.161,0.1772,0.187,0.188,0.1903,0.1852,0.207,0.2085,0.2099,0.2125,0.2143,0.1933,0.1932,0.1931,0.1931,0,0.1288,0.1274,0.1304,0.1318,0.1339,0.1382,0.1414,0.1458,0.1491,0.1535,0.1673,0.1743,0.1859,0.1923,0.1938,0.2098,0.2076,0.2065,0.1973,0.2128,0.2149,0.2165,0.1942,0.194,0.1938,0.1936,0,0,0.1335,0.1344,0.1349,0.1354,0.1396,0.1421,0.1519,0.1575,0.165,0.1735,0.1844,0.1995,0.2023,0.2086,0.2136,0.2204,0.2332,0.219,0.2191,0.2167,0.2481,0.2423,0.2434,0.2365,0.2369,0.2371,0.246,0,0.1398,0.1431,0.1434,0.1502,0.1513,0.154,0.1626,0.1697,0.1772,0.1888,0.1978,0.2115,0.21,0.2184,0.2254,0.2314,0.2378,0.2306,0.2379,0.238,0.2266,0.2452,0.2254,0.2313,0.2475,0.2478,0.248,0,0.1458,0.1451,0.1501,0.1526,0.1542,0.1612,0.1703,0.1787,0.1945,0.2016,0.2154,0.2229,0.2376,0.2337,0.248,0.2443,0.2469,0.2487,0.2492,0.2396,0.2352,0.219,0.2335,0.2505,0.2503,0.2501,0.25,0,0.1458,0.1489,0.1506,0.1528,0.1589,0.1639,0.1694,0.1832,0.1925,0.2117,0.2224,0.2373,0.2492,0.2544,0.2587,0.2565,0.27,0.2679,0.2636,0.263,0.2449,0.2422,0.2761,0.2761,0.276,0.276,0.276,0,0.1483,0.1503,0.1509,0.1538,0.1603,0.1644,0.1772,0.1864,0.2029,0.2176,0.2302,0.2447,0.2554,0.2645,0.2643,0.269,0.2756,0.2664,0.2669,0.2487,0.2464,0.2605,0.2586,0.2763,0.2763,0.2762,0.2762,0,0.1508,0.1502,0.1547,0.1594,0.1616,0.1683,0.1823,0.1932,0.2067,0.227,0.2346,0.255,0.268,0.2725,0.2823,0.2781,0.2807,0.2791,0.2547,0.2522,0.2669,0.2655,0.2789,0.2788,0.2787,0.2787,0.2786,0,0.153,0.1547,0.1604,0.1647,0.1686,0.1768,0.1855,0.1972,0.2086,0.2325,0.2432,0.2622,0.2737,0.2836,0.2813,0.2803,0.2825,0.2594,0.2517,0.2691,0.2682,0.2669,0.2657,0.2326,0.2321,0.2318,0.2315,0,0.1591,0.1621,0.1653,0.171,0.1794,0.1859,0.1968,0.2037,0.2189,0.2313,0.2462,0.2558,0.2722,0.2666,0.2676,0.2625,0.2581,0.2525,0.281,0.2346,0.2261,0.2249,0.2251,0.2284,0.2287,0.229,0.2291,0.2292,0.1649,0.1672,0.1696,0.174,0.1848,0.1884,0.1888,0.1993,0.2074,0.217,0.2346,0.2395,0.2478,0.2411,0.2353,0.231,0.2476,0.2338,0.2347,0.2359,0.2287,0.2205,0.2202,0.2204,0.2206,0.2208,0.221,0,0.1585,0.1612,0.1705,0.1712,0.1769,0.1842,0.1909,0.1868,0.1871,0.2018,0.2068,0.1927,0.196,0.2047,0.1969,0.1976,0.1916,0.1874,0.1793,0.1827,0.1856,0.1755,0.1531,0.1529,0.1526,0.1524,0,0,0.1531,0.1526,0.1532,0.1549,0.1614,0.16,0.159,0.1584,0.163,0.158,0.1594,0.177,0.1953,0.1685,0.1686,0.1614,0.1683,0.1533,0.2082,0.2018,0.2044,0.2138,0.2023,0,0,0,0,0]},{"header":{"parameterUnit":"m.s-1","parameterCategory":2,"la1":30.2991,"la2":30.254,"lo1":-89.0895,"lo2":-89.0444,"dy":0.0017,"dx":0.0017,"nx":28,"ny":28,"refTime":"2025-07-07T09:00:00:Z","depth":"2","parameterNumber":3,"parameterNumberName":"V-component_of_CURRENTS"},"data":[0,0,0,0,0,0,0,0,0,0,0,0,0,0,0,0,0,0,0,0,0,0,0,0,0,0,0,0,0,0,0,0,0,0,0,0,0,0,0,0,0,0,0,0,0,0,0,0,0,0,0,0,0,0,0,0,0,0,-0.0464,-0.0464,0,-0.05,-0.05,-0.05,-0.0509,-0.0509,-0.0509,-0.0509,-0.053,-0.053,-0.0531,0,0,0,0,0,0,0,0,0,0,0,0,0,-0.0415,-0.0415,-0.0463,-0.0464,-0.0465,-0.05,-0.05,-0.05,-0.0509,-0.0509,-0.0509,-0.0509,-0.053,-0.053,-0.0531,0,0,0,0,0,0,0,0,0,0,0,0,0,-0.0438,-0.0415,-0.0463,-0.0476,-0.0478,-0.05,-0.05,-0.05,-0.0509,-0.0509,-0.0509,-0.0509,-0.0529,-0.053,-0.0531,-0.0531,0,0,-0.0533,-0.0533,0,0,0,0,0,0,0,0,-0.0437,-0.044,-0.0474,-0.0476,-0.0478,-0.0504,-0.0491,-0.0511,-0.0509,-0.0493,-0.0509,-0.0509,-0.0522,-0.0523,-0.0524,-0.0532,-0.0533,-0.0533,-0.0533,-0.0533,-0.0534,0,0,0,0,0,0,0,-0.0435,-0.0438,-0.0474,-0.0475,-0.0477,-0.0486,-0.0488,-0.0494,-0.0503,-0.0494,-0.0496,-0.0506,-0.0522,-0.0524,-0.0525,-0.0533,-0.0533,-0.0533,-0.0534,-0.0534,-0.0517,-0.0517,0,0,0,0,0,0,-0.0438,-0.0437,-0.0473,-0.0475,-0.0462,-0.0487,-0.049,-0.0492,-0.0503,-0.0506,-0.0506,-0.0507,-0.0522,-0.0524,-0.0526,-0.0495,-0.0533,-0.0534,-0.0534,-0.0518,-0.0517,-0.0516,0,0,0,0,0,0,-0.0436,-0.044,-0.0471,-0.046,-0.0466,-0.0488,-0.049,-0.0493,-0.0497,-0.0513,-0.0515,-0.0509,-0.0523,-0.0525,-0.0548,-0.0498,-0.0534,-0.0535,-0.0519,-0.0518,-0.0517,-0.0455,0,0,0,0,0,0,-0.0435,-0.0439,-0.0439,-0.046,-0.0466,-0.0475,-0.049,-0.0493,-0.0505,-0.0506,-0.0516,-0.0518,-0.0523,-0.0547,-0.0549,-0.0499,-0.0535,-0.052,-0.0519,-0.0517,-0.0458,-0.0452,-0.0447,0,0,0,0,0,-0.0433,-0.0424,-0.0439,-0.0444,-0.0466,-0.0475,-0.0477,-0.0492,-0.0505,-0.0498,-0.0526,-0.0518,-0.0536,-0.0549,-0.055,-0.0499,-0.0521,-0.0519,-0.0517,-0.0461,-0.0453,-0.0447,0,0,0,0,0,0,-0.0396,-0.0425,-0.0442,-0.0441,-0.0457,-0.0477,-0.0473,-0.0493,-0.0508,-0.0511,-0.053,-0.0534,-0.0529,-0.0534,-0.0547,-0.049,-0.0517,-0.0516,-0.0474,-0.0467,-0.0461,-0.0438,-0.0536,0,0,0,0,0,-0.0392,-0.0397,-0.0425,-0.0425,-0.0429,-0.0455,-0.0462,-0.0474,-0.0495,-0.0501,-0.0512,-0.0519,-0.052,-0.0514,-0.052,-0.0502,-0.0514,-0.0464,-0.0458,-0.0453,-0.0435,-0.0428,-0.0419,-0.051,-0.051,-0.051,0,0,-0.0381,-0.0397,-0.0402,-0.0419,-0.043,-0.0421,-0.0457,-0.0462,-0.0453,-0.0501,-0.049,-0.051,-0.0518,-0.0496,-0.0489,-0.0493,-0.0438,-0.045,-0.0446,-0.0431,-0.0425,-0.0416,-0.0408,-0.0509,-0.0509,-0.0509,0,0,-0.0351,-0.0371,-0.0361,-0.0369,-0.0388,-0.0399,-0.0402,-0.0422,-0.0425,-0.0434,-0.0457,-0.046,-0.0461,-0.0449,-0.0445,-0.0413,-0.0419,-0.04,-0.0336,-0.0329,-0.0321,-0.0314,-0.0338,-0.0333,-0.0383,-0.0382,-0.0382,0,-0.0335,-0.033,-0.0358,-0.0344,-0.0349,-0.0386,-0.037,-0.0372,-0.0399,-0.0392,-0.042,-0.0416,-0.043,-0.0391,-0.0376,-0.0394,-0.0406,-0.0362,-0.032,-0.0313,-0.0307,-0.0333,-0.0329,-0.0379,-0.038,-0.038,-0.038,0,-0.0294,-0.0292,-0.0282,-0.028,-0.0283,-0.0278,-0.0291,-0.0288,-0.0306,-0.0306,-0.0291,-0.0324,-0.0303,-0.0309,-0.0334,-0.0281,-0.0311,-0.0326,-0.0335,-0.0294,-0.0325,-0.0322,-0.0375,-0.0376,-0.0377,-0.0378,0,0,-0.0254,-0.0255,-0.0251,-0.0249,-0.0254,-0.0253,-0.0227,-0.0213,-0.0182,-0.0202,-0.0154,-0.0174,-0.0176,-0.0173,-0.0196,-0.0199,-0.0183,-0.0234,-0.0235,-0.0254,-0.0186,-0.0255,-0.0259,-0.0188,-0.0187,-0.0185,-0.0232,0,-0.0215,-0.019,-0.0195,-0.0167,-0.0161,-0.0175,-0.0142,-0.0131,-0.0124,-0.0079,-0.0094,-0.0054,-0.0124,-0.0099,-0.0112,-0.0153,-0.0169,-0.017,-0.0226,-0.0228,-0.029,-0.0255,-0.0244,-0.0288,-0.0229,-0.0229,-0.0228,0,-0.0175,-0.0168,-0.0141,-0.0126,-0.0118,-0.0096,-0.0059,-0.0031,0.0026,0.0046,0.0082,0.0083,0.0107,0.0035,-0.0017,-0.0013,-0.0088,-0.0148,-0.0151,-0.0229,-0.029,-0.0316,-0.0285,-0.0224,-0.0224,-0.0224,-0.0225,0,-0.0158,-0.0131,-0.0116,-0.0112,-0.0089,-0.0067,-0.004,0.0009,0.0072,0.015,0.0227,0.022,0.0263,0.0171,0.0047,0.0037,-0.0044,-0.0066,-0.0214,-0.0221,-0.0229,-0.0239,-0.0116,-0.0116,-0.0116,-0.0115,-0.0115,0,-0.0132,-0.012,-0.0105,-0.0098,-0.0042,-0.0039,0.0044,0.0083,0.0184,0.0292,0.0312,0.0378,0.0303,0.0249,0.0102,-0.005,0.0004,-0.0194,-0.0226,-0.0212,-0.0219,-0.0173,-0.0179,-0.0117,-0.0117,-0.0116,-0.0116,0,-0.0126,-0.0124,-0.0096,-0.0062,-0.0036,0.0004,0.0121,0.0201,0.0285,0.0434,0.0488,0.0537,0.0468,0.0331,0.0182,0.0042,-0.0118,-0.0201,-0.0201,-0.0231,-0.0314,-0.0316,-0.0325,-0.0328,-0.033,-0.0331,-0.0333,0,-0.0125,-0.0113,-0.0057,-0.0015,0.0005,0.0077,0.0161,0.0253,0.035,0.0506,0.059,0.0599,0.0561,0.0312,0.0095,-0.0154,-0.018,-0.031,-0.0326,-0.03,-0.033,-0.0329,-0.0328,-0.0321,-0.0322,-0.0323,-0.0324,0,-0.0115,-0.0095,-0.0063,0.0024,0.0102,0.0201,0.0311,0.0402,0.0527,0.0638,0.0711,0.0684,0.0506,0.0269,-0.0032,-0.0205,-0.0262,-0.0341,-0.028,-0.028,-0.0302,-0.033,-0.0328,-0.0333,-0.0332,-0.0332,-0.0331,-0.0331,-0.0099,-0.0073,-0.0024,0.0061,0.0168,0.0285,0.0386,0.0502,0.063,0.0799,0.0739,0.0726,0.0496,0.0115,-0.0147,-0.0357,-0.0352,-0.0439,-0.0432,-0.0425,-0.0427,-0.0452,-0.0514,-0.0514,-0.0514,-0.0514,-0.0514,0,-0.0113,-0.0075,0.0015,0.0106,0.0235,0.0294,0.0473,0.0597,0.0735,0.0825,0.0854,0.0609,0.0342,0.011,-0.0216,-0.046,-0.0448,-0.0524,-0.045,-0.0441,-0.0433,-0.0431,-0.0521,-0.0521,-0.0521,-0.0521,0,0,-0.0133,-0.0081,-0.0035,0.0127,0.0235,0.0431,0.0547,0.073,0.0842,0.0883,0.0871,0.0791,0.0445,0.0206,-0.0114,-0.0295,-0.0304,-0.0335,-0.0312,-0.0179,-0.0166,-0.0378,-0.0366,0,0,0,0,0]}],[{"header":{"parameterUnit":"m.s-1","parameterCategory":2,"la1":30.2991,"la2":30.254,"lo1":-89.0895,"lo2":-89.0444,"dy":0.0017,"dx":0.0017,"nx":28,"ny":28,"refTime":"2025-07-07T09:00:00:Z","depth":"4","parameterNumber":2,"parameterNumberName":"U-component_of_CURRENTS"},"data":[0,0,0,0,0,0,0,0,0,0,0,0,0,0,0,0,0,0,0,0,0,0,0,0,0,0,0,0,0,0,0,0,0,0,0,0,0,0,0,0,0,0,0,0,0,0,0,0,0,0,0,0,0,0,0,0,0,0,0.0422,0.0422,0,0.0453,0.0453,0.0454,0.0506,0.0508,0.0509,0.051,0.0581,0.0582,0.0583,0,0,0,0,0,0,0,0,0,0,0,0,0,0.0381,0.0381,0.0422,0.0422,0.0423,0.0453,0.0453,0.0454,0.0506,0.0508,0.0509,0.051,0.0581,0.0582,0.0583,0,0,0,0,0,0,0,0,0,0,0,0,0,0.0403,0.0382,0.0422,0.0453,0.0457,0.0453,0.0453,0.0454,0.0506,0.0508,0.0509,0.0511,0.058,0.0582,0.0583,0.0559,0,0,0.0587,0.0588,0,0,0,0,0,0,0,0,0.0402,0.0405,0.0448,0.0451,0.0455,0.0478,0.0465,0.0491,0.0506,0.0486,0.051,0.0511,0.055,0.0554,0.0554,0.0563,0.0566,0.0587,0.0588,0.0589,0.0589,0,0,0,0,0,0,0,0.04,0.0403,0.0433,0.0449,0.0453,0.0457,0.0462,0.047,0.0509,0.0488,0.0492,0.0497,0.0552,0.0553,0.0556,0.0567,0.0587,0.0588,0.0589,0.059,0.0643,0.0644,0,0,0,0,0,0,0.0398,0.0402,0.0432,0.0434,0.0433,0.0456,0.0462,0.0468,0.0508,0.0515,0.0495,0.0499,0.055,0.0555,0.0559,0.0627,0.0589,0.059,0.0591,0.0643,0.0643,0.0644,0,0,0,0,0,0,0.0397,0.04,0.0431,0.0419,0.0424,0.0456,0.0462,0.0468,0.0506,0.0513,0.0521,0.0531,0.0551,0.0557,0.0593,0.0627,0.059,0.0592,0.0642,0.0643,0.0644,0.0702,0,0,0,0,0,0,0.0396,0.04,0.0419,0.0419,0.0425,0.045,0.0461,0.0468,0.0504,0.051,0.0546,0.0552,0.0553,0.0591,0.0594,0.0628,0.0593,0.0641,0.0642,0.0643,0.07,0.0705,0.071,0,0,0,0,0,0.0394,0.0406,0.042,0.0425,0.0445,0.0451,0.0454,0.048,0.0505,0.0521,0.0547,0.0553,0.0601,0.0592,0.0596,0.0631,0.0641,0.0642,0.0643,0.0697,0.0704,0.071,0,0,0,0,0,0,0.0398,0.0413,0.0428,0.0446,0.0459,0.0461,0.0481,0.0498,0.053,0.0549,0.056,0.0567,0.0604,0.0606,0.0597,0.0647,0.0622,0.0624,0.0662,0.0668,0.0673,0.0669,0.0594,0,0,0,0,0,0.0406,0.0425,0.0434,0.0452,0.0461,0.0479,0.0492,0.051,0.0528,0.0546,0.0572,0.0594,0.0604,0.063,0.0633,0.0668,0.0684,0.0691,0.0696,0.07,0.0699,0.0712,0.0718,0.0648,0.0648,0.0648,0,0,0.0412,0.0425,0.0436,0.0456,0.0471,0.0485,0.0492,0.052,0.0544,0.0547,0.0603,0.061,0.0613,0.0645,0.0664,0.0661,0.0744,0.0702,0.0706,0.0702,0.0714,0.0721,0.0727,0.0649,0.0649,0.0649,0,0,0.042,0.0446,0.0462,0.0477,0.0505,0.0512,0.0528,0.0552,0.0581,0.0621,0.0624,0.065,0.0686,0.0688,0.0693,0.0727,0.0758,0.0743,0.0785,0.0799,0.0805,0.081,0.0909,0.0922,0.076,0.076,0.0761,0,0.043,0.045,0.0467,0.0485,0.0502,0.0529,0.0546,0.0572,0.0609,0.0632,0.0651,0.0689,0.07,0.0721,0.0741,0.074,0.0783,0.0765,0.0806,0.0811,0.0815,0.0915,0.0929,0.0763,0.0763,0.0763,0.0762,0,0.044,0.047,0.048,0.0514,0.0532,0.0554,0.0582,0.0621,0.0664,0.0684,0.0729,0.0738,0.0768,0.0775,0.0777,0.0814,0.0853,0.0801,0.0794,0.0826,0.093,0.0944,0.0768,0.0767,0.0766,0.0765,0,0,0.0426,0.0478,0.0485,0.0511,0.0552,0.0565,0.0612,0.065,0.0695,0.0735,0.0784,0.0802,0.0825,0.0829,0.0836,0.0853,0.0949,0.086,0.086,0.0967,0.1061,0.098,0.0988,0.0911,0.0912,0.0913,0.1148,0,0.0432,0.0468,0.0493,0.0537,0.0557,0.0598,0.064,0.0683,0.0733,0.0791,0.0806,0.0854,0.0842,0.088,0.0893,0.0928,0.0977,0.0896,0.1006,0.1011,0.0937,0.0995,0.0916,0.1158,0.1161,0.1163,0.1165,0,0.043,0.0458,0.0494,0.0558,0.0573,0.0607,0.0681,0.0724,0.0797,0.0841,0.0886,0.0913,0.0975,0.094,0.1038,0.0998,0.1043,0.106,0.1068,0.0969,0.095,0.1099,0.1189,0.1187,0.1185,0.1184,0.1182,0,0.0401,0.046,0.0491,0.051,0.058,0.0619,0.067,0.0744,0.0801,0.0887,0.0945,0.0998,0.1058,0.1093,0.1154,0.1122,0.1249,0.1205,0.1181,0.1181,0.1159,0.115,0.1254,0.1254,0.1254,0.1253,0.1252,0,0.0389,0.0416,0.0489,0.0507,0.0564,0.0621,0.0701,0.0756,0.0854,0.0919,0.0982,0.1036,0.1092,0.1168,0.1203,0.1254,0.1304,0.1208,0.1216,0.119,0.1181,0.1175,0.1162,0.1262,0.126,0.1258,0.1257,0,0.0345,0.0392,0.043,0.0515,0.055,0.0594,0.0724,0.0776,0.0885,0.0975,0.1015,0.1114,0.1217,0.1278,0.136,0.1325,0.1368,0.1363,0.1412,0.1417,0.1303,0.1291,0.14,0.1399,0.1398,0.1397,0.1396,0,0.0324,0.0335,0.0425,0.0457,0.0501,0.0589,0.0645,0.0771,0.083,0.1003,0.103,0.1174,0.1228,0.1325,0.1362,0.1458,0.1406,0.1453,0.1296,0.1311,0.131,0.1299,0.1289,0.1394,0.1394,0.1394,0.1393,0,0.0272,0.0305,0.0341,0.0409,0.0471,0.0541,0.0639,0.069,0.0831,0.0942,0.1046,0.112,0.1226,0.1289,0.1367,0.1403,0.143,0.144,0.1441,0.1295,0.1305,0.1302,0.1294,0.1389,0.139,0.139,0.1391,0,0.0232,0.0241,0.0295,0.0351,0.0424,0.0477,0.0542,0.0638,0.073,0.0924,0.0951,0.1099,0.1207,0.1264,0.1328,0.1369,0.1342,0.1284,0.1293,0.1298,0.1142,0.1131,0.1188,0,0,0,0,0,0.019,0.0193,0.0235,0.0297,0.0369,0.0416,0.0525,0.0593,0.0738,0.079,0.0884,0.0981,0.1097,0.1162,0.1189,0.1271,0.1331,0.1293,0.1264,0.1368,0.1372,0.1189,0,0,0,0,0,0,0.016,0.0187,0.0206,0.0245,0.0281,0.0353,0.0419,0.0513,0.0562,0.0715,0.0784,0.091,0.1031,0.1076,0.1163,0.1188,0.1148,0.1392,0.139,0.1365,0.1369,0.1373,0.1187,0,0,0,0,0]},{"header":{"parameterUnit":"m.s-1","parameterCategory":2,"la1":30.2991,"la2":30.254,"lo1":-89.0895,"lo2":-89.0444,"dy":0.0017,"dx":0.0017,"nx":28,"ny":28,"refTime":"2025-07-07T09:00:00:Z","depth":"4","parameterNumber":3,"parameterNumberName":"V-component_of_CURRENTS"},"data":[0,0,0,0,0,0,0,0,0,0,0,0,0,0,0,0,0,0,0,0,0,0,0,0,0,0,0,0,0,0,0,0,0,0,0,0,0,0,0,0,0,0,0,0,0,0,0,0,0,0,0,0,0,0,0,0,0,0,0.006,0.0059,0,-0.001,-0.0011,-0.0012,-0.0083,-0.0084,-0.0085,-0.0086,-0.0191,-0.0193,-0.0195,0,0,0,0,0,0,0,0,0,0,0,0,0,0.0081,0.0081,0.006,0.0059,0.0058,-0.001,-0.0011,-0.0012,-0.0083,-0.0084,-0.0085,-0.0086,-0.0191,-0.0193,-0.0195,0,0,0,0,0,0,0,0,0,0,0,0,0,0.0046,0.0081,0.006,0.0016,0.0011,-0.001,-0.0011,-0.0012,-0.0083,-0.0084,-0.0086,-0.0087,-0.019,-0.0193,-0.0196,-0.0188,0,0,-0.0205,-0.0206,0,0,0,0,0,0,0,0,0.0049,0.0046,0.0023,0.0019,0.0013,-0.0038,-0.0042,-0.0073,-0.0083,-0.0048,-0.0086,-0.0087,-0.0142,-0.0149,-0.016,-0.0193,-0.0198,-0.0205,-0.0207,-0.0208,-0.0209,0,0,0,0,0,0,0,0.0051,0.0048,0.0031,0.0022,0.0016,-0.0019,-0.0024,-0.0049,-0.0089,-0.0052,-0.0057,-0.0062,-0.0145,-0.0157,-0.0163,-0.0199,-0.0205,-0.0208,-0.021,-0.0211,-0.0325,-0.0326,0,0,0,0,0,0,0.0066,0.0051,0.0033,0.0029,0.0029,-0.0017,-0.0024,-0.0021,-0.0088,-0.0098,-0.0061,-0.0065,-0.0151,-0.016,-0.0167,-0.0238,-0.0208,-0.0211,-0.0213,-0.0323,-0.0325,-0.0326,0,0,0,0,0,0,0.0067,0.0066,0.0036,0.0038,0.0032,-0.0016,-0.0012,-0.0022,-0.0054,-0.0094,-0.0106,-0.0085,-0.0153,-0.0163,-0.0222,-0.024,-0.0212,-0.0215,-0.0322,-0.0324,-0.0326,-0.0331,0,0,0,0,0,0,0.0068,0.0067,0.0072,0.004,0.0033,0.0015,-0.0011,-0.0022,-0.0053,-0.006,-0.0118,-0.0128,-0.0154,-0.0217,-0.0225,-0.0244,-0.0218,-0.032,-0.0323,-0.0325,-0.033,-0.0333,-0.0336,0,0,0,0,0,0.0069,0.0074,0.0073,0.0071,0.0043,0.0015,0.0007,-0.0033,-0.0053,-0.0067,-0.0121,-0.0128,-0.0237,-0.0221,-0.0229,-0.0249,-0.0319,-0.0322,-0.0325,-0.0328,-0.0332,-0.0336,0,0,0,0,0,0,0.0081,0.0067,0.0065,0.0065,0.0041,0.0002,-0.0013,-0.0037,-0.0088,-0.0102,-0.0144,-0.0158,-0.0216,-0.0232,-0.0213,-0.029,-0.0278,-0.0283,-0.0278,-0.0282,-0.0286,-0.0259,-0.022,0,0,0,0,0,0.0092,0.0093,0.0072,0.0072,0.0061,0.0025,0.0008,-0.0019,-0.0065,-0.0089,-0.0132,-0.0182,-0.0229,-0.0256,-0.0295,-0.0333,-0.0342,-0.0352,-0.0355,-0.0358,-0.0344,-0.0393,-0.0399,-0.0335,-0.0335,-0.0335,0,0,0.0098,0.009,0.0091,0.0074,0.0053,0.0036,0.001,-0.0021,-0.0045,-0.0091,-0.0146,-0.0194,-0.0243,-0.0296,-0.0322,-0.0315,-0.0381,-0.0361,-0.0363,-0.0347,-0.0396,-0.0402,-0.0408,-0.0337,-0.0337,-0.0336,0,0,0.0101,0.0102,0.01,0.0084,0.0055,0.0035,0.0025,-0.0021,-0.0053,-0.0105,-0.0152,-0.021,-0.0276,-0.0317,-0.0345,-0.0386,-0.0397,-0.0404,-0.0399,-0.0448,-0.0453,-0.0458,-0.0472,-0.0477,-0.0405,-0.0405,-0.0405,0,0.0107,0.0111,0.0092,0.0081,0.0074,0.0035,0.0027,-0.001,-0.0074,-0.01,-0.0125,-0.0241,-0.0282,-0.0348,-0.0369,-0.0391,-0.0412,-0.038,-0.0451,-0.0456,-0.046,-0.0473,-0.048,-0.0406,-0.0406,-0.0406,-0.0406,0,0.0102,0.0109,0.0103,0.0087,0.0071,0.0059,0.0018,-0.0015,-0.0057,-0.0097,-0.0177,-0.0247,-0.0311,-0.0342,-0.037,-0.0428,-0.043,-0.0449,-0.0435,-0.0467,-0.0479,-0.0485,-0.0407,-0.0406,-0.0406,-0.0406,0,0,0.0106,0.0106,0.0103,0.0116,0.008,0.0071,0.0031,-0.0007,-0.0035,-0.0115,-0.0163,-0.0256,-0.0298,-0.0332,-0.0384,-0.0431,-0.0484,-0.0453,-0.0456,-0.0456,-0.0575,-0.0529,-0.0531,-0.0526,-0.0527,-0.0528,-0.0568,0,0.0111,0.0124,0.0109,0.0116,0.0126,0.009,0.0064,0.0017,-0.0039,-0.0101,-0.0188,-0.0255,-0.0295,-0.0335,-0.0391,-0.0467,-0.0503,-0.047,-0.0553,-0.0554,-0.0502,-0.0538,-0.0533,-0.0572,-0.0574,-0.0575,-0.0576,0,0.0106,0.0125,0.0147,0.0163,0.016,0.0152,0.012,0.0088,-0.0005,-0.0055,-0.0143,-0.0219,-0.0311,-0.034,-0.0466,-0.0449,-0.0502,-0.0554,-0.0558,-0.0512,-0.052,-0.0538,-0.0587,-0.0586,-0.0585,-0.0585,-0.0584,0,0.0134,0.0149,0.0182,0.0185,0.0185,0.0183,0.0173,0.0104,0.0074,-0.0028,-0.0074,-0.0195,-0.0266,-0.036,-0.0467,-0.0476,-0.0595,-0.0619,-0.0621,-0.0617,-0.0642,-0.0637,-0.0691,-0.0691,-0.0691,-0.0691,-0.0691,0,0.0154,0.0174,0.0206,0.0225,0.0247,0.0232,0.0226,0.0184,0.0119,0.0079,-0.0043,-0.011,-0.0279,-0.0377,-0.0461,-0.0552,-0.0588,-0.0614,-0.063,-0.0643,-0.0638,-0.0646,-0.064,-0.0692,-0.0692,-0.0692,-0.0691,0,0.0164,0.0191,0.0226,0.0254,0.0264,0.0275,0.0269,0.0251,0.0196,0.0134,0.01,-0.0059,-0.0187,-0.0327,-0.0483,-0.0534,-0.0626,-0.0642,-0.062,-0.0635,-0.0614,-0.0609,-0.0654,-0.0652,-0.0651,-0.0651,-0.065,0,0.0168,0.0195,0.0245,0.0263,0.0276,0.0299,0.0301,0.0279,0.026,0.0168,0.0134,-0.0007,-0.0119,-0.0291,-0.0439,-0.0581,-0.06,-0.063,-0.0647,-0.0602,-0.0614,-0.0609,-0.0605,-0.0648,-0.0648,-0.0648,-0.0648,0,0.0165,0.0186,0.0216,0.027,0.0294,0.032,0.0333,0.0329,0.0295,0.025,0.0164,0.0044,-0.0102,-0.0271,-0.038,-0.0485,-0.0608,-0.062,-0.0624,-0.064,-0.0596,-0.0608,-0.0605,-0.0644,-0.0645,-0.0645,-0.0645,0,0.0147,0.017,0.0222,0.0267,0.0302,0.0334,0.0339,0.0333,0.0325,0.0245,0.022,0.0055,-0.0052,-0.0219,-0.032,-0.0421,-0.0453,-0.0472,-0.0484,-0.0489,-0.0434,-0.0354,-0.0338,0,0,0,0,0,0.0135,0.0179,0.0214,0.0277,0.0311,0.0339,0.0355,0.0354,0.0337,0.0295,0.0268,0.0143,-0.0041,-0.0145,-0.0236,-0.0317,-0.0479,-0.0424,-0.0508,-0.0625,-0.0629,-0.0589,0,0,0,0,0,0,0.013,0.0175,0.0218,0.0284,0.0319,0.0363,0.0372,0.0354,0.0337,0.0298,0.0196,0.0148,-0.0043,0.0018,-0.023,-0.0266,-0.0323,-0.0518,-0.0519,-0.0623,-0.0626,-0.0629,-0.059,0,0,0,0,0]}]]